Cosmos 1092 Rocket - Orbit

View from above orbital plane
View from above orbital plane
View from above satellite
View from above satellite

Ground track
Ground track

The orbit data is extracted from the following two-line orbital elements,

1 11327U 79030B   13140.51838492  .00000043  00000-0  27684-4 0  5424
2 11327 082.9486 321.1623 0027995 029.9773 003.8368 13.76894794714277
Epoch (UTC): 20 May 2013 12:26:28
Eccentricity: 0.0027995
inclination: 82.9486°
perigee height: 954 km
apogee height: 995 km
right ascension of ascending node: 321.1623°
argument of perigee: 29.9773°
revolutions per day: 13.76894794
mean anomaly at epoch: 3.8368°
orbit number at epoch: 71427

The dashed part of the orbit path shows where the satellite is in the earth's shadow,  

Developed and maintained by Chris Peat, Heavens-Above GmbH. Please read the updated FAQ before sending e-mail. Imprint. DLR